Location: Gymnasium_Grossenhain
(51.3000°N, 13.5950°E)
Time: 11:14:19
(UTC+01:00)

BlueWalker 3 - Pass Details

Date: 09 October 2024
Orbit: 470 x 481 km, 53.2° (Epoch: 11 November)

Event Time Altitude Azimuth Distance (km) Brightness Sun altitude
Exits shadow 05:12:33 42° 173° (S) 681 2.4 -20.5°
Maximum altitude 05:13:01 45° 150° (SSE) 652 2.5 -20.5°
Drops below altitude 10° 05:16:32 10° 76° (ENE) 1,634 5.8 -19.9°
Sets 05:18:45 0° 71° (ENE) 2,515 7.1 -19.6°
